Simultaneous Nadir Overpasses (SNOs) Predictions

Prediction of SNOs between FY3D and AQUA Satellite Orbit:

Table of predicted SNOs for the next 14.0 days since TLE Epoch: 11/12/2022
Index Date (FY3D) Time (FY3D) Lat,Lon (FY3D) SZA (FY3D ) Date (AQUA) Time (AQUA) Lat,Lon (AQUA) SZA (AQUA ) Distance(km) Time Diff (sec)
1 11/13/2022 14:52:06 77.39, -57.85 95.60 11/13/2022 14:52:22 77.38, -57.79 95.59 1.57 16
2 11/13/2022 15:42:30 -76.49, 113.21 85.42 11/13/2022 15:41:28 -76.50, 113.15 85.40 1.89 62
3 11/16/2022 05:28:41 77.41, 82.93 96.30 11/16/2022 05:29:03 77.41, 82.96 96.29 0.90 22
4 11/16/2022 06:19:06 -76.56,-106.16 84.67 11/16/2022 06:18:10 -76.57,-106.24 84.66 2.14 56
5 11/18/2022 20:05:18 77.53,-136.72 97.07 11/18/2022 20:05:45 77.52,-136.63 97.05 2.24 27
6 11/18/2022 20:55:44 -76.72, 34.09 83.86 11/18/2022 20:54:53 -76.72, 34.07 83.85 0.45 51
7 11/21/2022 10:41:50 77.48, 4.39 97.61 11/21/2022 10:42:22 77.48, 4.37 97.60 0.59 32
8 11/21/2022 11:32:16 -76.67, 175.17 83.32 11/21/2022 11:31:30 -76.68, 175.07 83.30 2.90 46
9 11/24/2022 01:18:24 77.48, 145.28 98.17 11/24/2022 01:19:00 77.48, 145.22 98.16 1.39 36



Historial Predications of SNOs between FY3D and AQUA
